This is the latest recevied weather packets stored in our database for station/object KA8DUX-2. If no packets are shown the sender has not sent any weather packets the latest 1 day(s).
| Time | Temp. | Humidity | Pressure | Rain* | Wind** | Luminosity | Snow |
|---|---|---|---|---|---|---|---|
| 1778033321 | 6.67° C | 66% | 1008 hPa | 0 mm | - | 0 W/m² | - |
| 1778033019 | 6.67° C | 66% | 1008 hPa | 0 mm | - | 0 W/m² | - |
| 1778032110 | 6.67° C | 63% | 1007.8 hPa | 0 mm | - | 0 W/m² | - |
| 1778031807 | 7.22° C | 64% | 1007.7 hPa | 0 mm | - | 0 W/m² | - |
| 1778031504 | 7.22° C | 62% | 1007.7 hPa | 0 mm | - | 0 W/m² | - |
| 1778031201 | 7.22° C | 61% | 1007.6 hPa | 0 mm | - | 0 W/m² | - |
| 1778030897 | 7.78° C | 63% | 1007.4 hPa | 0 mm | - | 0 W/m² | - |
| 1778030595 | 7.78° C | 60% | 1007.6 hPa | 0 mm | - | 0 W/m² | - |
| 1778030292 | 7.78° C | 58% | 1007.3 hPa | 0 mm | - | 0 W/m² | - |
| 1778029686 | 7.78° C | 56% | 1007.4 hPa | 0 mm | - | 0 W/m² | - |
| 1778029384 | 8.33° C | 56% | 1007.4 hPa | 0 mm | - | 0 W/m² | - |
| 1778028777 | 8.89° C | 54% | 1007.5 hPa | 0 mm | - | 0 W/m² | - |
| 1778028473 | 8.89° C | 53% | 1007.4 hPa | 0 mm | - | 0 W/m² | - |
| 1778027867 | 9.44° C | 51% | 1007.2 hPa | 0 mm | - | 3 W/m² | - |
| 1778027260 | 10° C | 51% | 1007.3 hPa | 0 mm | - | 7 W/m² | - |
| 1778026956 | 10° C | 50% | 1007.3 hPa | 0 mm | - | 10 W/m² | - |
| 1778025441 | 10.56° C | 48% | 1007.4 hPa | 0 mm | - | 29 W/m² | - |
| 1778023018 | 11.11° C | 47% | 1007.1 hPa | 0 mm | - | 51 W/m² | - |
| 1778022415 | 11.11° C | 46% | 1007.1 hPa | 0 mm | - | 69 W/m² | - |
| 1778020898 | 11.67° C | 44% | 1007.3 hPa | 0 mm | - | 108 W/m² | - |
| 1778019987 | 11.11° C | 47% | 1007.3 hPa | 0 mm | - | 103 W/m² | - |
| 1778019077 | 11.67° C | 47% | 1007.4 hPa | 0 mm | - | 113 W/m² | - |
| 1778018170 | 11.67° C | 45% | 1006.9 hPa | 0 mm | - | 115 W/m² | - |
| 1778016960 | 11.67° C | 44% | 1007.3 hPa | 0 mm | - | 125 W/m² | - |
| 1778015140 | 11.67° C | 43% | 1007.4 hPa | 0 mm | - | 159 W/m² | - |
* Rain latest hour (hover to see other rain measurements)
** Current wind speed in m/s (hover to see current wind gust speed)